User: anonymous   Login
Location: Irma
(52.9170°N, 111.2330°W)
Time: 19:58:48
(UTC-06:00)
Language:

Cosmos 1633 Rocket - Orbit

View from above orbital plane
View from above orbital plane
View from above satellite
View from above satellite

Ground track
Ground track

The orbit data is extracted from the following two-line orbital elements,

1 15593U 85020B   16210.60165918  .00000099  00000-0  89401-5 0  9999
2 15593  82.5364 205.4419 0012547  35.2606 103.5751 14.84220155696374
Epoch (UTC): 28 July 2016 14:26:23
Eccentricity: 0.0012547
inclination: 82.5364°
perigee height: 607 km
apogee height: 625 km
right ascension of ascending node: 205.4419°
argument of perigee: 35.2606°
revolutions per day: 14.84220155
mean anomaly at epoch: 103.5751°
orbit number at epoch: 69637

The dashed part of the orbit path shows where the satellite is in the earth's shadow,  

DLR